Location: Bern
(46.9167°N, 7.4667°E)
Time: 17:46:06
(UTC+02:00)

Envisat - Visible Passes

Search period start: 23 October 2021 00:00
Search period end: 01 November 2021 23:00
Orbit: 764 x 766 km, 98.2° (Epoch: 22 October)

Date Brightness Start Highest point End Pass type
(mag) Time Alt. Az. Time Alt. Az. Time Alt. Az.
23 Oct 6.0 05:18:54 10° NE 05:21:45 15° E 05:24:35 10° ESE visible
23 Oct 2.9 06:56:16 10° N 07:01:21 77° WNW 07:06:25 10° SSW visible
24 Oct 3.9 06:19:29 10° NNE 06:24:28 51° E 06:29:24 10° S visible
24 Oct 6.4 19:19:25 10° WSW 19:21:36 13° W 19:23:47 10° WNW visible
25 Oct 5.3 05:43:12 10° NE 05:47:22 25° E 05:51:29 10° SSE visible
25 Oct 3.3 07:21:44 10° N 07:26:36 47° WNW 07:31:26 10° SW visible
26 Oct 6.2 05:08:18 10° ENE 05:10:03 12° E 05:11:48 10° ESE visible
26 Oct 3.0 06:44:43 10° NNE 06:49:50 86° ESE 06:54:55 10° SSW visible
27 Oct 4.3 06:08:04 10° NNE 06:12:53 41° E 06:17:39 10° SSE visible
27 Oct 6.1 19:06:49 10° SW 19:09:55 16° W 19:13:01 10° NW visible
28 Oct 5.6 05:32:01 10° NE 05:35:43 20° E 05:39:24 10° SE visible
28 Oct 3.0 07:10:07 10° N 07:15:07 58° WNW 07:20:05 10° SSW visible
29 Oct 3.3 06:33:12 10° NNE 06:38:18 69° ESE 06:43:21 10° S visible
30 Oct 4.7 05:56:42 10° NNE 06:01:17 33° E 06:05:50 10° SSE visible
30 Oct 3.6 07:35:42 10° N 07:40:18 36° WNW 07:44:53 10° SW visible
30 Oct 5.9 18:54:33 10° SW 18:58:15 20° W 19:01:58 10° NW visible
31 Oct 5.9 04:20:58 10° NE 04:24:03 16° E 04:27:08 10° SE visible
31 Oct 2.9 05:58:32 10° N 06:03:37 72° WNW 06:08:40 10° SSW visible
01 Nov 3.7 05:21:44 10° NNE 05:26:44 55° E 05:31:42 10° S visible
01 Nov 6.4 18:22:08 10° WSW 18:23:54 12° W 18:25:41 10° WNW visible
